#timestamp,LO_Frequency,Hit,StdDev 
1552302015.9,286046999.2,N
1552302035.7,286046996.8,N
1552302055.6,286046997.7,N
1552302075.4,286046997.7,N
1552302095.2,286046997.5,N
1552302115.1,286046996.4,Y
1552302116.0,286046996.4,P
1552302135.8,286046997.6,P
1552302155.7,286046999.1,N
1552302175.5,286046998.7,N
1552302195.3,286047001.2,N
1552302215.2,286046998.2,N
1552302235.0,286046998.5,N
1552302235.9,286046998.5,N
1552302255.7,286047001.2,N
1552302275.6,286046999.1,N
1552302295.4,286046998.9,N
1552302315.3,286046996.7,N
1552302335.1,286046999.4,N
1552302336.0,286046999.4,N
1552302355.8,286046998.9,N
1552302375.7,286046999.1,N
1552302395.5,286046999.6,N
1552302415.3,286046997.4,N
1552302435.2,286046997.2,N
1552302455.0,286046997.6,N
1552302455.9,286046997.6,N
1552302475.8,286046995.9,Y
1552302495.6,286046997.0,P
1552302515.4,286046996.6,P
1552302535.3,286046998.7,N
1552302555.1,286047002.5,N
1552302575.8,286047002.6,N
1552302595.7,286047001.1,N
1552302615.5,286046998.2,N
1552302635.4,286046998.3,N
1552302655.2,286047001.2,N
1552302675.0,286046998.2,N
1552302675.9,286046998.2,N
1552302695.8,286046998.5,N
1552302715.6,286046998.6,N
1552302735.4,286046998.8,N
1552302755.3,286046996.7,N
1552302775.1,286046999.3,N
1552302795.9,286046999.2,N
1552302815.7,286046995.0,N
1552302835.5,286046997.7,N
1552302855.4,286046998.0,N
1552302875.2,286046995.0,N
1552302895.0,286046995.9,N
1552302895.9,286046995.9,N
1552302915.8,286046997.6,N
1552302935.6,286046996.2,N
1552302955.5,286046993.3,Y
1552302975.3,286046997.4,P
1552302995.1,286046997.4,P
1552303015.9,286046996.6,P
1552303035.2,286046998.0,Y
1552303055.1,286047000.4,P
1552303056.0,286047000.4,N
1552303075.8,286047000.2,N
1552303095.6,286047000.3,N
1552303115.5,286047002.6,N
1552303135.3,286047000.4,N
1552303155.2,286046998.1,N
1552303175.9,286047000.2,N
1552303195.7,286047000.4,N
1552303215.6,286047002.4,N
1552303235.4,286047002.4,N
1552303255.2,286047000.5,N
1552303275.1,286047000.5,N
1552303276.0,286047000.5,N
1552303295.8,286047000.9,N
1552303315.7,286046998.8,N
1552303335.5,286046999.0,N
1552303355.3,286046998.3,N
1552303375.2,286046998.2,N
1552303395.0,286046998.9,N
1552303395.9,286046998.9,N
1552303415.7,286046998.3,N
1552303435.6,286046998.5,N
1552303455.4,286047000.3,N
1552303475.3,286047000.6,N
1552303495.1,286047000.7,N
1552303515.8,286047001.0,N
1552303535.7,286046999.8,N
1552303555.5,286046998.2,N
1552303575.3,286047001.0,N
1552303595.2,286046998.2,N
1552303615.0,286046998.8,N
1552303615.9,286046998.8,N
1552303635.8,286046996.7,N
1552303655.6,286046997.2,N
1552303675.4,286046996.8,N
1552303695.3,286046998.7,N
1552303715.1,286047001.2,N
1552303735.8,286047000.8,N
1552303755.7,286046998.2,N
1552303775.5,286046999.3,N
1552303795.4,286046999.6,N
1552303815.2,286046999.1,N
1552303835.0,286046998.8,N
1552303835.9,286046998.8,N
1552303855.8,286046998.7,N
1552303875.6,286046999.1,N
1552303895.4,286046999.1,N
1552303915.3,286047001.1,N
1552303935.1,286046998.6,N
1552303955.9,286046999.1,N
1552303975.7,286046998.6,N
1552303995.5,286046998.3,N
1552304015.4,286046998.2,N
1552304035.2,286047000.1,N
1552304055.1,286046998.9,N
1552304056.0,286046998.9,N
1552304075.8,286046999.0,N
1552304095.6,286046998.7,N
1552304115.5,286046998.7,N
1552304135.3,286046998.9,N
1552304155.2,286046998.7,N
1552304175.9,286046998.9,N
1552304195.7,286046996.6,Y
1552304215.6,286046998.1,P
1552304235.4,286047000.8,N
1552304255.2,286047000.8,N
1552304275.1,286047000.2,N
1552304276.0,286047000.2,N
1552304295.8,286047000.4,N
1552304315.7,286047000.5,N
1552304335.5,286047000.2,N
1552304355.3,286047002.8,Y
1552304375.2,286047001.8,P
1552304395.0,286047002.5,N
1552304395.9,286047002.5,N
1552304415.8,286047000.1,N
1552304435.6,286046999.9,N
1552304455.4,286047000.4,N
1552304475.3,286047000.0,N
1552304495.1,286047001.1,N
1552304515.8,286046998.7,N
1552304535.7,286046998.4,N
1552304555.5,286046998.7,N
1552304575.3,286047000.6,N
1552304595.2,286047000.9,N
1552304615.0,286047000.2,N
1552304615.9,286047000.2,N
1552304635.8,286047002.7,N
1552304655.6,286046999.7,N
1552304675.4,286047002.5,N
1552304695.3,286047001.3,N
1552304715.1,286047002.1,N
1552304735.8,286047001.8,N
1552304755.7,286047004.0,Y
1552304775.6,286047002.5,P
1552304795.4,286047002.5,N
1552304815.2,286047002.5,N
1552304835.1,286047002.3,N
1552304836.0,286047002.3,Y
1552304855.8,286046998.6,P
1552304875.7,286046999.6,N
1552304895.5,286046996.9,N
1552304915.3,286046995.1,N
1552304935.2,286046997.5,N
1552304955.0,286046999.6,N
1552304955.9,286046999.6,N
1552304975.7,286046996.5,N
1552304995.6,286046997.5,N
1552305015.4,286046999.6,N
1552305035.3,286046996.6,N
1552305055.1,286046999.5,N
1552305056.0,286046999.5,N
1552305075.8,286046999.6,N
1552305095.7,286046996.8,N
1552305115.5,286046999.5,N
1552305135.3,286046996.5,N
1552305155.2,286046998.9,N
1552305175.0,286046998.5,N
1552305175.9,286046998.5,N
1552305195.8,286047001.1,N
1552305215.6,286046998.6,N
1552305235.4,286046996.5,N
1552305255.3,286046999.3,N
1552305275.1,286047000.7,N
1552305295.8,286047000.9,N
1552305315.7,286046998.2,N
1552305335.5,286047000.9,N
1552305355.4,286047000.2,N
1552305375.2,286047000.1,N
1552305395.0,286047000.0,N
1552305395.9,286047000.0,N
1552305415.8,286047001.6,N
1552305435.6,286047002.6,N
1552305455.5,286047000.2,N
1552305475.3,286046999.8,N
1552305495.1,286047000.3,N
1552305515.9,286047002.7,N
1552305535.7,286047002.0,N
1552305555.6,286047007.6,Y
1552305575.4,286047010.0,P
1552305595.2,286047011.0,N
